timestamp,wind_dir_avg,wind_spd_avg,wind_spd_max_dir,wind_spd_gust,battery_voltage,lat,long
2022-08-12 00:04:00+00:00,220.0,3.63,223.0,4.58,12.49,47.59359,-54.27349
2022-08-12 00:14:01+00:00,240.0,3.68,242.0,4.51,12.49,47.59359,-54.27349
2022-08-12 00:24:01+00:00,236.0,3.26,245.0,4.12,12.49,47.59359,-54.27349
2022-08-12 00:34:01+00:00,252.0,3.84,254.0,4.56,12.49,47.59359,-54.27349
2022-08-12 00:44:01+00:00,237.0,3.71,242.0,4.52,12.49,47.59359,-54.27349
2022-08-12 00:54:01+00:00,243.0,2.89,236.0,3.41,12.49,47.59359,-54.27349
2022-08-12 01:04:01+00:00,251.0,2.85,249.0,3.26,12.49,47.59359,-54.27349
2022-08-12 01:14:01+00:00,265.0,2.38,266.0,2.97,12.41,47.59359,-54.27349
2022-08-12 01:24:01+00:00,209.0,3.96,208.0,4.59,12.41,47.59359,-54.27349
2022-08-12 01:34:01+00:00,200.0,4.03,192.0,4.66,12.41,47.59359,-54.27349
2022-08-12 01:44:01+00:00,211.0,3.69,211.0,4.45,12.41,47.59359,-54.27349
2022-08-12 01:54:01+00:00,195.0,3.13,195.0,3.45,12.41,47.59359,-54.27349
2022-08-12 02:04:01+00:00,198.0,2.83,196.0,3.51,12.41,47.59359,-54.27349
2022-08-12 02:14:00+00:00,189.0,3.43,192.0,4.33,12.41,47.59359,-54.27349
2022-08-12 02:24:00+00:00,197.0,3.69,194.0,4.07,12.41,47.59359,-54.27349
2022-08-12 02:34:00+00:00,180.0,4.26,183.0,4.71,12.41,47.59359,-54.27349
2022-08-12 02:44:00+00:00,183.0,4.1,187.0,4.49,12.41,47.59359,-54.27349
2022-08-12 02:54:00+00:00,177.0,3.62,177.0,4.07,12.41,47.59359,-54.27349
2022-08-12 03:04:00+00:00,169.0,4.22,171.0,4.66,12.41,47.59359,-54.27349
2022-08-12 03:14:00+00:00,173.0,4.07,171.0,4.8,12.33,47.59359,-54.27349
2022-08-12 03:24:00+00:00,169.0,3.93,169.0,4.2,12.33,47.59359,-54.27349
2022-08-12 03:34:00+00:00,173.0,3.69,175.0,4.28,12.33,47.59359,-54.27349
2022-08-12 03:44:00+00:00,182.0,4.29,188.0,5.19,12.33,47.59359,-54.27349
2022-08-12 03:54:00+00:00,175.0,4.0,180.0,4.42,12.33,47.59359,-54.27349
2022-08-12 04:04:00+00:00,169.0,4.36,170.0,4.86,12.33,47.59359,-54.27349
2022-08-12 04:14:01+00:00,166.0,4.42,164.0,4.75,12.41,47.59359,-54.27349
2022-08-12 04:24:01+00:00,166.0,3.76,168.0,4.62,12.41,47.59359,-54.27349
2022-08-12 04:34:01+00:00,175.0,4.23,176.0,4.9,12.41,47.59359,-54.27349
2022-08-12 04:44:01+00:00,180.0,3.85,175.0,4.37,12.41,47.59359,-54.27349
2022-08-12 04:54:01+00:00,182.0,3.96,182.0,4.67,12.41,47.59359,-54.27349
2022-08-12 05:04:01+00:00,164.0,3.79,170.0,4.3,12.41,47.59359,-54.27349
2022-08-12 05:14:00+00:00,170.0,4.07,169.0,4.39,12.41,47.59359,-54.27349
2022-08-12 05:24:00+00:00,169.0,3.6,166.0,3.95,12.41,47.59359,-54.27349
2022-08-12 05:34:00+00:00,167.0,4.43,171.0,4.86,12.41,47.59359,-54.27349
2022-08-12 05:44:00+00:00,168.0,4.62,170.0,5.07,12.41,47.59359,-54.27349
2022-08-12 05:54:00+00:00,170.0,4.5,175.0,4.99,12.41,47.59359,-54.27349
2022-08-12 06:04:00+00:00,170.0,4.1,176.0,4.75,12.41,47.59359,-54.27349
2022-08-12 06:14:00+00:00,170.0,4.52,173.0,4.87,12.33,47.59359,-54.27349
2022-08-12 06:24:00+00:00,178.0,4.53,183.0,5.13,12.33,47.59359,-54.27349
2022-08-12 06:34:00+00:00,162.0,5.06,161.0,5.62,12.33,47.59359,-54.27349
2022-08-12 06:44:00+00:00,171.0,4.23,168.0,5.02,12.33,47.59359,-54.27349
2022-08-12 06:54:00+00:00,170.0,4.47,170.0,5.05,12.33,47.59359,-54.27349
2022-08-12 07:04:00+00:00,168.0,4.32,176.0,4.97,12.33,47.59359,-54.27349
2022-08-12 07:14:01+00:00,182.0,4.01,181.0,4.54,12.33,47.59359,-54.27349
2022-08-12 07:24:01+00:00,169.0,3.91,169.0,4.46,12.33,47.59359,-54.27349
2022-08-12 07:34:01+00:00,168.0,3.94,171.0,4.64,12.33,47.59359,-54.27349
2022-08-12 07:44:01+00:00,168.0,3.93,166.0,4.58,12.33,47.59359,-54.27349
2022-08-12 07:54:01+00:00,166.0,3.79,176.0,4.57,12.33,47.59359,-54.27349
2022-08-12 08:04:01+00:00,165.0,3.89,162.0,4.74,12.33,47.59359,-54.27349
2022-08-12 08:14:00+00:00,161.0,3.54,161.0,4.02,12.33,47.59359,-54.27349
2022-08-12 08:24:00+00:00,164.0,3.68,161.0,4.0,12.33,47.59359,-54.27349
2022-08-12 08:34:00+00:00,168.0,3.85,169.0,4.31,12.33,47.59359,-54.27349
2022-08-12 08:44:00+00:00,164.0,3.6,170.0,4.05,12.33,47.59359,-54.27349
2022-08-12 08:54:00+00:00,169.0,4.23,171.0,5.46,12.33,47.59359,-54.27349
2022-08-12 09:04:00+00:00,164.0,3.79,169.0,4.66,12.33,47.59359,-54.27349
2022-08-12 09:14:00+00:00,172.0,4.35,172.0,5.13,12.33,47.59359,-54.27349
2022-08-12 09:24:00+00:00,169.0,3.83,173.0,4.59,12.33,47.59359,-54.27349
2022-08-12 09:34:00+00:00,170.0,3.8,165.0,4.22,12.33,47.59359,-54.27349
2022-08-12 09:44:00+00:00,169.0,3.77,168.0,4.31,12.33,47.59359,-54.27349
2022-08-12 09:54:00+00:00,168.0,3.72,167.0,4.08,12.33,47.59359,-54.27349
2022-08-12 10:04:00+00:00,178.0,2.99,175.0,3.44,12.33,47.59359,-54.27349
2022-08-12 10:14:01+00:00,170.0,3.78,172.0,4.02,12.73,47.59359,-54.27349
2022-08-12 10:24:01+00:00,178.0,3.46,184.0,3.84,12.73,47.59359,-54.27349
2022-08-12 10:34:01+00:00,189.0,3.55,188.0,3.9,12.73,47.59359,-54.27349
2022-08-12 10:44:01+00:00,177.0,3.33,172.0,3.77,12.73,47.59359,-54.27349
2022-08-12 10:54:01+00:00,172.0,3.28,170.0,3.72,12.73,47.59359,-54.27349
2022-08-12 11:04:01+00:00,178.0,3.43,181.0,4.85,12.73,47.59359,-54.27349
2022-08-12 11:14:00+00:00,155.0,2.87,154.0,3.25,13.6,47.59359,-54.27349
2022-08-12 11:24:00+00:00,158.0,2.78,161.0,3.16,13.6,47.59359,-54.27349
2022-08-12 11:34:00+00:00,162.0,2.53,163.0,2.9,13.6,47.59359,-54.27349
2022-08-12 11:44:00+00:00,162.0,2.54,159.0,3.05,13.6,47.59359,-54.27349
2022-08-12 11:54:00+00:00,171.0,2.64,177.0,2.96,13.6,47.59359,-54.27349
2022-08-12 12:04:00+00:00,166.0,2.23,165.0,2.55,13.6,47.59359,-54.27349
2022-08-12 12:14:00+00:00,168.0,2.46,172.0,3.06,13.6,47.59359,-54.27349
2022-08-12 12:24:00+00:00,176.0,2.18,171.0,2.54,13.6,47.59359,-54.27349
2022-08-12 12:34:00+00:00,163.0,2.67,163.0,3.48,13.6,47.59359,-54.27349
2022-08-12 12:44:00+00:00,171.0,2.25,169.0,2.39,13.6,47.59359,-54.27349
2022-08-12 12:54:00+00:00,157.0,1.59,159.0,1.89,13.6,47.59359,-54.27349
2022-08-12 13:04:00+00:00,170.0,1.66,170.0,1.96,13.6,47.59359,-54.27349
2022-08-12 13:14:01+00:00,181.0,1.06,182.0,1.31,14.0,47.59359,-54.27349
2022-08-12 13:24:01+00:00,152.0,1.26,172.0,1.5,14.0,47.59359,-54.27349
2022-08-12 13:34:01+00:00,178.0,1.9,181.0,2.18,14.0,47.59359,-54.27349
2022-08-12 13:44:01+00:00,181.0,1.05,175.0,1.6,14.0,47.59359,-54.27349
2022-08-12 13:54:01+00:00,226.0,0.96,216.0,1.13,14.0,47.59359,-54.27349
2022-08-12 14:04:01+00:00,215.0,0.51,189.0,0.77,14.0,47.59359,-54.27349
2022-08-12 14:14:00+00:00,215.0,1.18,212.0,1.6,14.16,47.59359,-54.27349
2022-08-12 14:24:00+00:00,229.0,1.46,231.0,1.67,14.16,47.59359,-54.27349
2022-08-12 14:34:00+00:00,220.0,1.73,214.0,2.37,14.16,47.59359,-54.27349
2022-08-12 14:44:00+00:00,212.0,1.76,225.0,2.33,14.16,47.59359,-54.27349
2022-08-12 14:54:00+00:00,227.0,1.47,216.0,1.79,14.16,47.59359,-54.27349
2022-08-12 15:04:00+00:00,206.0,1.31,206.0,1.82,14.16,47.59359,-54.27349
2022-08-12 15:14:00+00:00,215.0,1.13,212.0,1.28,13.92,47.59359,-54.27349
2022-08-12 15:24:00+00:00,270.0,0.96,273.0,1.14,13.92,47.59359,-54.27349
2022-08-12 15:34:00+00:00,265.0,1.37,281.0,1.71,13.92,47.59359,-54.27349
2022-08-12 15:44:00+00:00,263.0,1.75,261.0,2.01,13.92,47.59359,-54.27349
2022-08-12 15:54:00+00:00,246.0,1.16,237.0,1.35,13.92,47.59359,-54.27349
2022-08-12 16:04:00+00:00,296.0,0.7,301.0,0.87,13.92,47.59359,-54.27349
2022-08-12 16:14:01+00:00,298.0,0.99,299.0,1.18,13.84,47.59359,-54.27349
2022-08-12 16:24:01+00:00,327.0,1.19,328.0,1.39,13.84,47.59359,-54.27349
2022-08-12 16:34:01+00:00,318.0,1.91,318.0,2.25,13.84,47.59359,-54.27349
2022-08-12 16:44:01+00:00,320.0,1.85,317.0,2.07,13.84,47.59359,-54.27349
2022-08-12 16:54:01+00:00,348.0,1.42,348.0,1.72,13.84,47.59359,-54.27349
2022-08-12 17:04:01+00:00,347.0,1.03,342.0,1.31,13.84,47.59359,-54.27349
2022-08-12 17:14:00+00:00,350.0,1.12,349.0,1.39,13.84,47.59359,-54.27349
2022-08-12 17:24:00+00:00,270.0,0.04,252.0,0.56,13.84,47.59359,-54.27349
2022-08-12 17:34:00+00:00,306.0,0.15,277.0,0.33,13.84,47.59359,-54.27349
2022-08-12 17:44:00+00:00,311.0,0.34,316.0,0.54,13.84,47.59359,-54.27349
2022-08-12 17:54:00+00:00,263.0,0.33,271.0,0.42,13.84,47.59359,-54.27349
2022-08-12 18:04:00+00:00,243.0,0.08,251.0,0.22,13.84,47.59359,-54.27349
2022-08-12 18:14:00+00:00,195.0,0.66,195.0,0.94,13.53,47.59359,-54.27349
2022-08-12 18:24:00+00:00,171.0,0.55,176.0,0.68,13.53,47.59359,-54.27349
2022-08-12 18:34:00+00:00,143.0,0.89,150.0,1.18,13.53,47.59359,-54.27349
2022-08-12 18:44:00+00:00,136.0,0.89,130.0,1.24,13.53,47.59359,-54.27349
2022-08-12 18:54:00+00:00,148.0,0.81,152.0,0.94,13.53,47.59359,-54.27349
2022-08-12 19:04:00+00:00,172.0,0.92,184.0,1.23,13.53,47.59359,-54.27349
2022-08-12 19:14:01+00:00,161.0,0.52,156.0,0.72,13.53,47.59359,-54.27349
2022-08-12 19:24:01+00:00,201.0,0.66,196.0,0.84,13.53,47.59359,-54.27349
2022-08-12 19:34:01+00:00,189.0,0.91,194.0,1.13,13.53,47.59359,-54.27349
2022-08-12 19:44:01+00:00,165.0,1.02,167.0,1.22,13.53,47.59359,-54.27349
2022-08-12 19:54:01+00:00,188.0,1.11,187.0,1.28,13.53,47.59359,-54.27349
2022-08-12 20:04:01+00:00,210.0,1.44,205.0,1.84,13.53,47.59359,-54.27349
2022-08-12 20:14:00+00:00,214.0,1.35,215.0,1.58,13.21,47.59359,-54.27349
2022-08-12 20:24:00+00:00,198.0,2.03,197.0,2.26,13.21,47.59359,-54.27349
2022-08-12 20:34:00+00:00,225.0,1.4,234.0,1.8,13.21,47.59359,-54.27349
2022-08-12 20:44:00+00:00,226.0,0.41,231.0,0.6,13.21,47.59359,-54.27349
2022-08-12 20:54:00+00:00,127.0,1.35,145.0,2.35,13.21,47.59359,-54.27349
2022-08-12 21:04:00+00:00,147.0,2.65,147.0,2.8,13.21,47.59359,-54.27349
2022-08-12 21:14:01+00:00,123.0,2.33,122.0,2.93,13.05,47.59359,-54.27349
2022-08-12 21:24:01+00:00,126.0,2.23,119.0,3.14,13.05,47.59359,-54.27349
2022-08-12 21:34:01+00:00,109.0,0.96,101.0,1.75,13.05,47.59359,-54.27349
2022-08-12 21:44:01+00:00,79.0,1.69,86.0,2.34,13.05,47.59359,-54.27349
2022-08-12 21:54:01+00:00,76.0,1.07,109.0,1.52,13.05,47.59359,-54.27349
2022-08-12 22:04:01+00:00,96.0,1.13,94.0,2.2,13.05,47.59359,-54.27349
2022-08-12 22:14:00+00:00,66.0,1.02,50.0,1.73,12.65,47.59359,-54.27349
2022-08-12 22:24:00+00:00,70.0,1.88,72.0,2.75,12.65,47.59359,-54.27349
2022-08-12 22:34:00+00:00,59.0,2.12,73.0,2.73,12.65,47.59359,-54.27349
2022-08-12 22:44:00+00:00,74.0,1.17,65.0,1.64,12.65,47.59359,-54.27349
2022-08-12 22:54:00+00:00,60.0,3.1,68.0,3.8,12.65,47.59359,-54.27349
2022-08-12 23:04:00+00:00,59.0,2.96,63.0,3.68,12.65,47.59359,-54.27349
2022-08-12 23:14:00+00:00,46.0,3.22,56.0,4.14,12.49,47.59359,-54.27349
2022-08-12 23:24:00+00:00,57.0,3.41,59.0,4.09,12.49,47.59359,-54.27349
2022-08-12 23:34:00+00:00,73.0,4.48,78.0,5.22,12.49,47.59359,-54.27349
2022-08-12 23:44:00+00:00,91.0,2.22,119.0,3.7,12.49,47.59359,-54.27349
2022-08-12 23:54:00+00:00,86.0,2.6,75.0,4.11,12.49,47.59359,-54.27349
